ASA67 PASI-PAJN

Flight info

Callsign ASA67
Flight time 0h 22m
Altitude 13000
Route HAWRD5 TNAKY
Aircraft B737/M-SDE2E3FGHIRWXY/LB1

Departure

Time 2026-04-23 20:29
Airport Sitka Rocky Gutierrez Airport (PASI)

Arrival

Time 2026-04-23 20:51
Airport Juneau International Airport (PAJN)
Time Latitude Longitude Altitude Speed Heading
2026-04-23 20:17 57.05235 -135.36602 34 ft 0 kts 76°
2026-04-23 20:23 57.05233 -135.36615 34 ft 4 kts 75°
2026-04-23 20:23 57.05226 -135.36663 34 ft 4 kts 75°
2026-04-23 20:23 57.05220 -135.36705 34 ft 4 kts 64°
2026-04-23 20:24 57.05205 -135.36734 33 ft 4 kts
2026-04-23 20:24 57.05181 -135.36722 33 ft 4 kts 327°
2026-04-23 20:24 57.05164 -135.36698 34 ft 0 kts 315°
2026-04-23 20:26 57.05165 -135.36699 34 ft 1 kts 315°
2026-04-23 20:26 57.05208 -135.36774 34 ft 12 kts 316°
2026-04-23 20:26 57.05269 -135.36883 34 ft 12 kts 315°
2026-04-23 20:27 57.05328 -135.36991 34 ft 12 kts 316°
2026-04-23 20:27 57.05384 -135.37093 34 ft 8 kts 312°
2026-04-23 20:27 57.05398 -135.37166 34 ft 6 kts 262°
2026-04-23 20:27 57.05375 -135.37229 34 ft 6 kts 226°
2026-04-23 20:28 57.05344 -135.37278 35 ft 6 kts 202°
2026-04-23 20:28 57.05305 -135.37236 35 ft 12 kts 135°
2026-04-23 20:28 57.05076 -135.36820 35 ft 92 kts 135°
2026-04-23 20:28 57.04421 -135.35635 95 ft 165 kts 137°
2026-04-23 20:29 57.03536 -135.33992 918 ft 185 kts 137°
2026-04-23 20:29 57.02544 -135.32533 2101 ft 180 kts 156°
2026-04-23 20:29 57.01260 -135.31948 3038 ft 201 kts 182°
2026-04-23 20:29 56.99872 -135.32456 3741 ft 213 kts 207°
2026-04-23 20:30 56.98649 -135.34069 4501 ft 228 kts 232°
2026-04-23 20:30 56.97246 -135.39736 6129 ft 253 kts 266°
2026-04-23 20:30 56.97320 -135.42918 7304 ft 249 kts 284°
2026-04-23 20:31 56.97886 -135.45921 8336 ft 252 kts 301°
2026-04-23 20:31 56.98989 -135.48449 9340 ft 258 kts 318°
2026-04-23 20:31 57.00499 -135.50256 10340 ft 265 kts 335°
2026-04-23 20:31 57.02360 -135.51195 10769 ft 294 kts 350°
2026-04-23 20:32 57.04490 -135.51716 11008 ft 324 kts 350°
2026-04-23 20:32 57.06793 -135.52299 11561 ft 340 kts 350°
2026-04-23 20:32 57.09153 -135.52918 12381 ft 347 kts 350°
2026-04-23 20:32 57.11548 -135.53562 12847 ft 350 kts 350°
2026-04-23 20:33 57.13990 -135.54186 13002 ft 363 kts 354°
2026-04-23 20:33 57.16582 -135.53751 13018 ft 384 kts 13°
2026-04-23 20:33 57.19166 -135.52300 13010 ft 389 kts 15°
2026-04-23 20:33 57.21747 -135.50866 13000 ft 387 kts 14°
2026-04-23 20:34 57.24331 -135.49484 12996 ft 386 kts 14°
2026-04-23 20:34 57.26913 -135.48128 12996 ft 386 kts 14°
2026-04-23 20:34 57.29498 -135.46776 13000 ft 386 kts 14°
2026-04-23 20:34 57.32086 -135.45419 13000 ft 386 kts 14°
2026-04-23 20:35 57.34640 -135.44076 12995 ft 387 kts 14°
2026-04-23 20:35 57.37260 -135.42695 12986 ft 387 kts 14°
2026-04-23 20:35 57.39812 -135.41346 12984 ft 387 kts 14°
2026-04-23 20:35 57.42396 -135.39980 12994 ft 387 kts 14°
2026-04-23 20:36 57.44986 -135.38609 12985 ft 387 kts 14°
2026-04-23 20:36 57.47579 -135.37233 12990 ft 387 kts 14°
2026-04-23 20:36 57.50159 -135.35860 12994 ft 387 kts 14°
2026-04-23 20:36 57.52749 -135.34480 12997 ft 387 kts 14°
2026-04-23 20:37 57.55337 -135.33098 12987 ft 387 kts 14°
2026-04-23 20:37 57.57921 -135.31717 12991 ft 386 kts 14°
2026-04-23 20:37 57.60506 -135.30333 12994 ft 387 kts 14°
2026-04-23 20:37 57.63095 -135.28944 12984 ft 387 kts 14°
2026-04-23 20:38 57.65689 -135.27551 12986 ft 387 kts 14°
2026-04-23 20:38 57.68271 -135.26162 12980 ft 383 kts 14°
2026-04-23 20:38 57.70785 -135.24806 12796 ft 370 kts 14°
2026-04-23 20:38 57.73228 -135.23486 12232 ft 359 kts 13°
2026-04-23 20:39 57.75578 -135.22213 11658 ft 345 kts 13°
2026-04-23 20:39 57.77853 -135.20981 11049 ft 335 kts 13°
2026-04-23 20:39 57.80062 -135.19784 10645 ft 323 kts 13°
2026-04-23 20:39 57.82167 -135.18640 10528 ft 309 kts 13°
2026-04-23 20:40 57.84191 -135.17541 10379 ft 297 kts 13°
2026-04-23 20:40 57.86134 -135.16486 10223 ft 284 kts 12°
2026-04-23 20:40 57.87991 -135.15476 10103 ft 272 kts 12°
2026-04-23 20:40 57.89768 -135.14508 9982 ft 261 kts 12°
2026-04-23 20:41 57.91490 -135.13571 9708 ft 256 kts 12°
2026-04-23 20:41 57.93182 -135.12651 9408 ft 253 kts 12°
2026-04-23 20:41 57.94849 -135.11743 9090 ft 252 kts 12°
2026-04-23 20:41 57.96531 -135.10827 8755 ft 251 kts 12°
2026-04-23 20:42 57.98206 -135.09913 8410 ft 249 kts 12°
2026-04-23 20:42 57.99859 -135.09008 8116 ft 245 kts 12°
2026-04-23 20:42 58.01497 -135.08109 7791 ft 244 kts 12°
2026-04-23 20:42 58.03118 -135.07219 7480 ft 242 kts 11°
2026-04-23 20:43 58.04733 -135.06332 7180 ft 241 kts 11°
2026-04-23 20:43 58.06336 -135.05452 6979 ft 237 kts 11°
2026-04-23 20:43 58.07937 -135.04581 6844 ft 244 kts 11°
2026-04-23 20:43 58.09598 -135.03679 6701 ft 253 kts 11°
2026-04-23 20:44 58.11313 -135.02746 6552 ft 259 kts 11°
2026-04-23 20:44 58.13058 -135.01792 6403 ft 262 kts 13°
2026-04-23 20:44 58.14808 -135.00833 6247 ft 262 kts 13°
2026-04-23 20:44 58.16562 -134.99872 6108 ft 261 kts 14°
2026-04-23 20:45 58.18287 -134.98924 5918 ft 257 kts 14°
2026-04-23 20:45 58.20001 -134.97968 5622 ft 255 kts 14°
2026-04-23 20:45 58.21695 -134.97016 5346 ft 253 kts 14°
2026-04-23 20:45 58.23373 -134.96072 5053 ft 251 kts 15°
2026-04-23 20:46 58.25036 -134.95136 4763 ft 249 kts 15°
2026-04-23 20:46 58.26687 -134.94207 4481 ft 246 kts 15°
2026-04-23 20:46 58.28313 -134.93291 4209 ft 242 kts 15°
2026-04-23 20:46 58.29905 -134.92394 3971 ft 233 kts 15°
2026-04-23 20:47 58.31433 -134.91532 3685 ft 225 kts 15°
2026-04-23 20:47 58.32909 -134.90698 3421 ft 217 kts 15°
2026-04-23 20:47 58.34330 -134.89891 3195 ft 209 kts 17°
2026-04-23 20:47 58.35493 -134.88435 3005 ft 196 kts 54°
2026-04-23 20:48 58.35986 -134.86085 2930 ft 195 kts 80°
2026-04-23 20:48 58.36012 -134.83517 2698 ft 191 kts 92°
2026-04-23 20:48 58.35974 -134.81022 2508 ft 188 kts 91°
2026-04-23 20:48 58.35936 -134.78514 2333 ft 189 kts 91°
2026-04-23 20:49 58.35900 -134.76087 2053 ft 177 kts 91°
2026-04-23 20:49 58.35868 -134.73817 1779 ft 166 kts 91°
2026-04-23 20:49 58.35839 -134.71703 1560 ft 151 kts 91°
2026-04-23 20:49 58.35812 -134.69785 1293 ft 140 kts 91°
2026-04-23 20:50 58.35802 -134.67962 1024 ft 138 kts 88°
2026-04-23 20:50 58.35852 -134.66121 816 ft 140 kts 86°
2026-04-23 20:50 58.35893 -134.64293 612 ft 136 kts 88°
2026-04-23 20:50 58.35914 -134.62520 405 ft 131 kts 89°
2026-04-23 20:51 58.35910 -134.60798 184 ft 128 kts 95°
2026-04-23 20:51 58.35705 -134.59149 46 ft 125 kts 105°
2026-04-23 20:51 58.35511 -134.57751 35 ft 83 kts 104°
2026-04-23 20:51 58.35419 -134.57083 33 ft 21 kts 105°
2026-04-23 20:52 58.35389 -134.56874 33 ft 15 kts 106°
2026-04-23 20:52 58.35377 -134.56725 33 ft 10 kts 68°
2026-04-23 20:52 58.35436 -134.56671 31 ft 10 kts
2026-04-23 20:52 58.35483 -134.56740 32 ft 9 kts 289°
2026-04-23 20:53 58.35499 -134.56857 33 ft 9 kts 284°
2026-04-23 20:53 58.35515 -134.56978 32 ft 10 kts 283°
2026-04-23 20:53 58.35532 -134.57112 32 ft 11 kts 286°
2026-04-23 20:53 58.35554 -134.57252 33 ft 11 kts 285°
2026-04-23 20:54 58.35574 -134.57390 33 ft 11 kts 285°
2026-04-23 20:54 58.35596 -134.57546 33 ft 13 kts 284°
2026-04-23 20:54 58.35620 -134.57726 33 ft 14 kts 285°
2026-04-23 20:54 58.35645 -134.57900 32 ft 13 kts 284°
2026-04-23 20:55 58.35668 -134.58067 33 ft 13 kts 285°
2026-04-23 20:55 58.35691 -134.58230 32 ft 13 kts 285°
2026-04-23 20:55 58.35712 -134.58387 33 ft 12 kts 285°
2026-04-23 20:55 58.35735 -134.58541 32 ft 12 kts 290°
2026-04-23 20:56 58.35787 -134.58610 31 ft 6 kts 16°
2026-04-23 20:56 58.35823 -134.58568 33 ft 6 kts 14°
2026-04-23 20:56 58.35866 -134.58566 33 ft 6 kts 360°
2026-04-23 20:56 58.35880 -134.58545 33 ft 1 kts 81°
2026-04-23 20:57 58.35880 -134.58526 33 ft 2 kts 97°
2026-04-23 20:57 58.35876 -134.58496 33 ft 3 kts 102°
2026-04-23 20:57 58.35873 -134.58468 33 ft 2 kts 103°
2026-04-23 20:57 58.35872 -134.58462 33 ft 0 kts 103°